Regional Weather Roundup
Issued by NWS Sterling, VA

Home | Current Version | Previous Version | Graphics & Text | Print | Product List | Glossary On
Versions: 1 2 3 4 5 6 7 8 9 10 11 12 13 14 15 16 17 18 19 20 21 22 23 24 25 26 27 28 29 30 31 32 33 34 35 36 37 38 39 40 41 42 43 44 45 46 47 48 49 50
000
ASUS41 KLWX 130110
RWRLWX

REGIONAL WEATHER ROUNDUP
NATIONAL WEATHER SERVICE BALTIMORE MD/WASHINGTON DC
900 PM EDT SAT JUL 12 2014

Note: "FAIR" indicates few or no clouds below 12,000 feet
with no significant weather and/or obstructions to visibility.
 TC=TEMPERATURE CELSIUS

 * =Non NWS site. Station does not report precipitation (e.g. rain,
    snow, etc.), thunder, or fog.

DCZ001-MDZ009-015-VAZ040>042-051-053>054-130200-
WASHINGTON METRO

CITY           SKY/WX    TMP DP  RH WIND       PRES   REMARKS
WASHINGTON NAT CLEAR     82  67  60 S10       30.11S
DULLES         PTCLDY    79  68  69 S7        30.11S
QUANTICO       CLEAR     81  72  74 S9        30.12R
LEESBURG*      CLEAR     82  72  69 S7        30.11S
MANASSAS*      PTCLDY    82  68  61 S8        30.11
GAITHERSBURG*  CLEAR     81  66  61 SE8       30.15S

$$

MDZ006>007-011-014-130200-
BALTIMORE METRO

CITY           SKY/WX    TMP DP  RH WIND       PRES   REMARKS
BWI AIRPORT    PTCLDY    78  65  63 SE6       30.11S
MD SCIENCE CTR   N/A     81  65  58 MISG      30.12S
MARTIN STATE   PTCLDY    81  73  78 SE12      30.13S
ANNAPOLIS      CLEAR     78  69  73 S12G22    30.12F
FORT MEADE*    CLEAR     75  64  69 SE5       30.13F

$$

MDZ012-015-019>023-130200-
MARYLAND EASTERN SHORE

CITY           SKY/WX    TMP DP  RH WIND       PRES   REMARKS
OCEAN CITY     CLEAR     73  69  87 S3        30.17S
SALISBURY        N/A     75  67  76 S5        30.17
BAY BRIDGE AP*   N/A     79  64  61 S12       30.12F
EASTON*        CLEAR     81  72  74 S9        30.17F

$$

MDZ017>025-130200-
SOUTHERN MARYLAND

CITY           SKY/WX    TMP DP  RH WIND       PRES   REMARKS
PATUXENT RIVER CLEAR     76  69  79 S9        30.14S
ST INIGOES     CLEAR     78  67  68 SE10      30.14S
LEONARDTOWN*   CLEAR     75  64  69 SE6       30.16S

$$

MDZ003>005-130200-
NORTH CENTRAL MARYLAND

CITY           SKY/WX    TMP DP  RH WIND       PRES   REMARKS
FREDERICK*     CLEAR     79  72  78 SE3       30.12S
HAGERSTOWN APT PTCLDY    81  69  67 S6        30.10S
WESTMINSTER*   PTCLDY    79  68  69 SE8       30.13S

$$

MDZ501>502-130200-
WESTERN MARYLAND

CITY           SKY/WX    TMP DP  RH WIND       PRES   REMARKS
OAKLAND*       PTCLDY    68  59  73 S3        30.21
CUMBERLAND*    PTCLDY    79  59  50 NE3       30.12S

$$

VAZ025>031-130200-
SHENANDOAH VALLEY

CITY           SKY/WX    TMP DP  RH WIND       PRES   REMARKS
WINCHESTER*    CLEAR     79  68  69 CALM      30.11S
STAUNTON*      PTCLDY    77  65  64 S5        30.15F

$$

WVZ021-048>050-054>055-130200-
EASTERN WEST VIRGINIA PANHANDLE

CITY           SKY/WX    TMP DP  RH WIND       PRES   REMARKS
MARTINSBURG    PTCLDY    80  67  64 S5        30.10S
PETERSBURG*    MOCLDY    77  65  65 CALM      30.11S

$$

VAZ036>039-050-130200-
CENTRAL FOOTHILLS

CITY           SKY/WX    TMP DP  RH WIND       PRES   REMARKS
CHARLOTTESVILL PTCLDY    78  66  66 S7        30.11F
ORANGE*        PTCLDY    79  68  69 CALM      30.13S

$$

VAZ055>057-130200-
NORTH AND CENTRAL PIEDMONT

CITY           SKY/WX    TMP DP  RH WIND       PRES   REMARKS
FREDERICKSBRG* CLEAR     82  66  59 SE7       30.10S
STAFFORD*      CLEAR     80  67  64 SE3       30.15S

$$

NCZ024-NYZ072-PAZ021-071-VAZ022-071-130200-
OTHER REGIONAL OBSERVATIONS

CITY           SKY/WX    TMP DP  RH WIND       PRES   REMARKS
NEW YORK CITY  CLEAR     75  61  61 S7        30.17S
PHILADELPHIA   PTCLDY    78  62  57 S14       30.14S
PITTSBURGH     MOCLDY    80  64  58 S6        30.08S
ROANOKE        CLOUDY    80  67  64 CALM      30.16F
RICHMOND       PTCLDY    81  66  60 SE10      30.14R
RALEIGH        PTCLDY    81  66  60 SE6       30.15R

$$

ANZ530>537-130200-
MARINE OBSERVATIONS

STATION/POSITION TIME  TEMP    WIND        PRES
                       AIR SEA DIR/SP/G
                 (UTC) (F)     (DEG/KT/KT) (MB)
THOMAS PT LIGHT  0100   79 79  170/ 21/ 23 1020.2F
BALT KEY BRIDGE  0100   80     150/ 16/ 19 1018.9F
COVE POINT       0100   78     190/ 19/ 20 1020.6F
LEWISETTA        0100   77 83  170/  8/  9 1020.6R
SOLOMONS ISLAND  0100      82                N/A
PINEY POINT      0100          170/ 14/ 17   N/A

$$




USA.gov is the U.S. government's official web portal to all federal, state and local government web resources and services.